• In Germany
  • List of Countries
  • For 7 days
  • Water Temperature
  • Satellite Maps
  • Weather Map
  • Weather Widgets
  • user-avatar
    Login

    Hourly Weather Baku

    Today, 25 April, Tuesday

    Time Temperature Precipitation Wind Pressure Humidity
    00:00 +12°C° 0 mm 2 mps 763 mmHg 60%
    01:00 +12°C° 0 mm 2 mps 763 mmHg 61%
    02:00 +12°C° 0 mm 2 mps 763 mmHg 61%
    03:00 +10°C° 0 mm 2 mps 763 mmHg 62%
    04:00 +11°C° 0 mm 3 mps 764 mmHg 61%
    05:00 +11°C° 0 mm 3 mps 764 mmHg 60%
    06:00 +12°C° 0 mm 4 mps 765 mmHg 59%
    07:00 +11°C° 0 mm 6 mps 765 mmHg 60%
    08:00 +12°C° 0 mm 9 mps 766 mmHg 62%
    09:00 +10°C° 0 mm 13 mps 767 mmHg 66%
    10:00 +10°C° 0 mm 14 mps 767 mmHg 64%
    11:00 +10°C° 0 mm 14 mps 767 mmHg 63%
    12:00 +10°C° 0 mm 14 mps 767 mmHg 62%
    13:00 +10°C° 0 mm 14 mps 768 mmHg 64%
    14:00 +10°C° 0 mm 13 mps 768 mmHg 65%
    15:00 +9°C° 0 mm 13 mps 768 mmHg 67%
    16:00 +9°C° 0 mm 13 mps 768 mmHg 69%
    17:00 +8°C° 0 mm 13 mps 769 mmHg 72%
    18:00 +7°C° 0 mm 13 mps 769 mmHg 74%
    19:00 +7°C° 0 mm 13 mps 770 mmHg 69%
    20:00 +7°C° 0 mm 13 mps 771 mmHg 65%
    21:00 +7°C° 0 mm 12 mps 771 mmHg 61%
    22:00 +8°C° 0 mm 12 mps 771 mmHg 57%
    23:00 +8°C° 0 mm 11 mps 772 mmHg 54%

    Tomorrow, 26 April, Wednesday

    Time Temperature Precipitation Wind Pressure Humidity
    00:00 +8°C° 0 mm 10 mps 772 mmHg 50%
    01:00 +8°C° 0 mm 9 mps 772 mmHg 50%
    02:00 +8°C° 0 mm 9 mps 772 mmHg 49%
    03:00 +9°C° 0 mm 8 mps 773 mmHg 49%
    04:00 +9°C° 0 mm 8 mps 773 mmHg 49%
    05:00 +9°C° 0 mm 8 mps 774 mmHg 49%
    06:00 +10°C° 0 mm 7 mps 774 mmHg 49%
    07:00 +10°C° 0 mm 7 mps 774 mmHg 49%
    08:00 +11°C° 0 mm 7 mps 775 mmHg 49%
    09:00 +12°C° 0 mm 7 mps 775 mmHg 48%
    10:00 +14°C° 0 mm 6 mps 775 mmHg 47%
    11:00 +14°C° 0 mm 6 mps 775 mmHg 45%
    12:00 +15°C° 0 mm 5 mps 775 mmHg 44%
    13:00 +14°C° 0 mm 5 mps 774 mmHg 44%
    14:00 +14°C° 0 mm 4 mps 774 mmHg 44%
    15:00 +14°C° 0 mm 4 mps 774 mmHg 44%
    16:00 +14°C° 0 mm 4 mps 774 mmHg 47%
    17:00 +13°C° 0 mm 4 mps 774 mmHg 50%
    18:00 +12°C° 0 mm 3 mps 774 mmHg 54%
    19:00 +12°C° 0 mm 3 mps 774 mmHg 57%
    20:00 +12°C° 0 mm 2 mps 774 mmHg 60%
    21:00 +10°C° 0 mm 2 mps 774 mmHg 63%
    22:00 +10°C° 0 mm 2 mps 774 mmHg 63%
    23:00 +10°C° 0 mm 2 mps 774 mmHg 62%

    Day after tomorrow, 27 April, Thursday

    Time Temperature Precipitation Wind Pressure Humidity
    00:00 +10°C° 0 mm 2 mps 774 mmHg 61%
    01:00 +9°C° 0 mm 2 mps 773 mmHg 62%
    02:00 +9°C° 0 mm 2 mps 773 mmHg 62%
    03:00 +9°C° 0 mm 2 mps 773 mmHg 63%
    04:00 +9°C° 0 mm 2 mps 773 mmHg 61%
    05:00 +10°C° 0 mm 2 mps 773 mmHg 59%
    06:00 +12°C° 0 mm 2 mps 773 mmHg 57%
    07:00 +13°C° 0 mm 2 mps 773 mmHg 51%
    08:00 +14°C° 0 mm 2 mps 773 mmHg 45%
    09:00 +16°C° 0 mm 2 mps 773 mmHg 39%
    10:00 +17°C° 0 mm 2 mps 773 mmHg 38%
    11:00 +18°C° 0 mm 3 mps 773 mmHg 37%
    12:00 +19°C° 0 mm 3 mps 773 mmHg 36%
    13:00 +19°C° 0 mm 4 mps 772 mmHg 37%
    14:00 +19°C° 0 mm 4 mps 772 mmHg 38%
    15:00 +19°C° 0 mm 5 mps 771 mmHg 39%
    16:00 +18°C° 0 mm 4 mps 771 mmHg 42%
    17:00 +18°C° 0 mm 4 mps 771 mmHg 45%
    18:00 +17°C° 0 mm 3 mps 771 mmHg 49%
    19:00 +16°C° 0 mm 3 mps 771 mmHg 52%
    20:00 +15°C° 0 mm 2 mps 772 mmHg 55%
    21:00 +14°C° 0 mm 2 mps 772 mmHg 59%
    22:00 +14°C° 0 mm 2 mps 772 mmHg 60%
    23:00 +14°C° 0 mm 2 mps 771 mmHg 61%

    28 April, Friday

    Time Temperature Precipitation Wind Pressure Humidity
    00:00 +14°C° 0 mm 2 mps 771 mmHg 61%
    01:00 +13°C° 0 mm 2 mps 771 mmHg 63%
    02:00 +13°C° 0 mm 2 mps 771 mmHg 64%
    03:00 +13°C° 0 mm 2 mps 770 mmHg 65%
    04:00 +13°C° 0 mm 2 mps 770 mmHg 64%
    05:00 +13°C° 0 mm 3 mps 770 mmHg 63%
    06:00 +14°C° 0 mm 3 mps 770 mmHg 61%
    07:00 +15°C° 0 mm 4 mps 770 mmHg 53%
    08:00 +17°C° 0 mm 4 mps 770 mmHg 45%
    09:00 +19°C° 0 mm 5 mps 770 mmHg 36%
    10:00 +19°C° 0 mm 5 mps 770 mmHg 35%
    11:00 +20°C° 0 mm 6 mps 769 mmHg 33%
    12:00 +20°C° 0 mm 6 mps 769 mmHg 31%
    13:00 +20°C° 0 mm 6 mps 768 mmHg 32%
    14:00 +20°C° 0 mm 6 mps 768 mmHg 32%
    15:00 +19°C° 0 mm 6 mps 767 mmHg 33%
    16:00 +19°C° 0 mm 5 mps 767 mmHg 34%
    17:00 +18°C° 0 mm 4 mps 767 mmHg 36%
    18:00 +17°C° 0 mm 3 mps 767 mmHg 37%
    19:00 +17°C° 0 mm 3 mps 767 mmHg 39%
    20:00 +16°C° 0 mm 2 mps 767 mmHg 41%
    21:00 +15°C° 0 mm 2 mps 767 mmHg 44%
    22:00 +15°C° 0 mm 2 mps 767 mmHg 43%
    23:00 +15°C° 0 mm 2 mps 766 mmHg 43%

    29 April, Saturday

    Time Temperature Precipitation Wind Pressure Humidity
    00:00 +14°C° 0 mm 2 mps 766 mmHg 42%
    01:00 +14°C° 0 mm 2 mps 765 mmHg 43%
    02:00 +14°C° 0 mm 2 mps 765 mmHg 43%
    03:00 +14°C° 0 mm 2 mps 764 mmHg 44%
    04:00 +15°C° 0 mm 2 mps 764 mmHg 43%
    05:00 +15°C° 0 mm 2 mps 765 mmHg 43%
    06:00 +16°C° 0 mm 3 mps 765 mmHg 43%
    07:00 +17°C° 0 mm 3 mps 765 mmHg 40%
    08:00 +18°C° 0 mm 3 mps 765 mmHg 38%
    09:00 +19°C° 0 mm 4 mps 765 mmHg 36%
    10:00 +20°C° 0.1 mm 4 mps 764 mmHg 36%
    11:00 +20°C° 0.1 mm 4 mps 764 mmHg 37%
    12:00 +21°C° 0.1 mm 5 mps 764 mmHg 38%
    13:00 +21°C° 0 mm 5 mps 763 mmHg 40%
    14:00 +21°C° 0 mm 5 mps 763 mmHg 42%
    15:00 +21°C° 0 mm 5 mps 762 mmHg 44%
    16:00 +20°C° 0 mm 4 mps 762 mmHg 46%
    17:00 +19°C° 0 mm 4 mps 762 mmHg 49%
    18:00 +19°C° 0 mm 3 mps 762 mmHg 51%
    19:00 +18°C° 0 mm 2 mps 762 mmHg 53%
    20:00 +18°C° 0 mm 2 mps 763 mmHg 55%
    21:00 +18°C° 0 mm 1 mps 763 mmHg 57%
    22:00 +18°C° 0 mm 1 mps 762 mmHg 56%
    23:00 +18°C° 0 mm 1 mps 762 mmHg 55%

    30 April, Sunday

    Time Temperature Precipitation Wind Pressure Humidity
    00:00 +17°C° 0 mm 2 mps 762 mmHg 54%
    01:00 +17°C° 0 mm 2 mps 762 mmHg 54%
    02:00 +16°C° 0 mm 2 mps 761 mmHg 54%
    03:00 +16°C° 0 mm 2 mps 761 mmHg 55%
    04:00 +16°C° 0.1 mm 2 mps 761 mmHg 54%
    05:00 +17°C° 0.1 mm 2 mps 761 mmHg 53%
    06:00 +18°C° 0.1 mm 2 mps 761 mmHg 51%
    07:00 +19°C° 0 mm 2 mps 762 mmHg 47%
    08:00 +20°C° 0 mm 2 mps 762 mmHg 43%
    09:00 +23°C° 0 mm 2 mps 762 mmHg 38%
    10:00 +24°C° 0 mm 2 mps 761 mmHg 36%
    11:00 +25°C° 0 mm 3 mps 761 mmHg 35%
    12:00 +25°C° 0 mm 3 mps 761 mmHg 33%
    13:00 +25°C° 0 mm 4 mps 760 mmHg 32%
    14:00 +25°C° 0 mm 4 mps 760 mmHg 32%
    15:00 +25°C° 0 mm 4 mps 760 mmHg 32%
    16:00 +24°C° 0 mm 3 mps 760 mmHg 33%
    17:00 +23°C° 0 mm 2 mps 760 mmHg 34%
    18:00 +21°C° 0 mm 2 mps 760 mmHg 36%
    19:00 +20°C° 0 mm 2 mps 760 mmHg 37%
    20:00 +19°C° 0 mm 2 mps 760 mmHg 38%
    21:00 +18°C° 0 mm 2 mps 761 mmHg 40%
    22:00 +18°C° 0 mm 3 mps 760 mmHg 43%
    23:00 +17°C° 0 mm 3 mps 760 mmHg 46%
    Show more